RH
4 4 5 6 7 9 15 28 88 100 100 100 100 100 100 100 100 100 100 100 100 100 100 100 98 100 99 100 100 100 100 100 100 88 92 88 95 99 100 100 100 100 93 100 100 100 100 95 95 75 63 62 62 74
4 4 5 6 6 10 21 40 100 100 100 100 100 100 100 100 100 98 100 100 100 100 100 100 100 100 100 100 100 100 100 100 100 100 100 100 100 100 100 100 100 97 100 100 83 80 56 67 99 86 58 68 66 75
3 4 6 7 8 14 22 100 100 100 98 100 100 100 100 100 100 100 100 100 100 100 100 100 100 100 100 100 100 100 100 100 100 100 100 98 99 100 100 100 100 100 100 100 88 85 71 92 77 50 83 92 79 87
3 4 5 7 9 20 73 100 100 100 100 100 100 100 100 100 90 98 100 100 100 100 100 100 100 100 100 100 98 97 100 100 100 100 100 100 100 100 100 100 100 100 100 92 100 94 86 56 50 72 93 71 95 79
3 4 4 7 15 24 100 100 100 100 100 100 100 100 100 100 100 100 100 100 100 100 100 100 100 100 100 100 100 100 100 100 96 97 100 100 98 100 100 99 99 94 77 94 96 94 83 55 69 87 81 96 57 55
4 4 6 11 18 91 100 100 100 100 100 100 100 100 100 100 100 100 100 100 100 100 100 100 100 100 100 100 100 100 100 100 100 100 100 100 100 90 97 100 74 88 98 100 81 89 65 79 96 96 89 50 27 20
5 6 11 16 51 100 100 100 100 100 100 100 100 100 100 100 100 100 100 100 100 100 100 100 100 100 100 100 100 100 100 100 100 100 100 78 81 100 100 96 94 100 99 73 71 77 86 75 97 87 35 26 13 12
6 8 16 94 100 100 100 100 100 100 100 100 100 100 100 100 100 100 100 100 100 100 100 100 100 100 100 100 100 100 100 100 100 100 94 100 100 86 68 75 100 95 67 73 78 78 93 99 58 32 13 12 13 14
8 10 34 100 100 100 100 100 100 100 100 100 100 100 100 100 100 100 100 100 100 100 100 100 100 100 100 98 84 81 97 100 100 100 92 80 76 71 78 95 88 74 86 100 100 98 62 38 25 15 14 13 13 13
13 14 29 99 99 86 100 100 100 100 100 100 100 100 100 100 100 100 100 89 94 100 100 100 100 100 100 100 100 100 100 100 91 84 88 73 61 95 100 90 94 97 100 100 84 40 27 13 12 13 13 12 11 10
19 22 25 27 29 34 68 100 98 100 100 100 100 100 100 100 100 100 100 100 100 95 84 100 100 96 99 100 100 100 96 86 74 82 87 80 99 100 99 100 98 99 83 36 28 14 12 13 13 12 10 9 9 9
42 42 39 44 60 93 100 100 100 100 100 100 100 100 100 100 100 100 100 100 100 98 100 100 100 100 95 96 88 85 83 95 100 100 97 100 98 100 100 93 80 27 26 16 13 13 12 11 9 8 8 8 8 8
89 96 99 99 100 100 100 100 100 100 98 88 100 100 100 100 100 100 100 100 100 100 100 100 89 76 91 96 99 99 100 100 93 100 100 90 84 80 45 36 18 14 14 14 13 12 10 9 8 8 8 7 7 7
54 98 100 100 100 100 100 100 94 97 100 100 100 100 100 98 78 88 100 90 63 96 100 100 100 100 100 100 100 100 100 100 100 100 100 66 42 27 16 15 15 16 15 12 11 10 9 8 8 7 6 6 5 4
49 43 57 91 99 100 100 90 100 100 100 100 100 100 100 89 100 100 100 100 100 100 100 100 97 97 100 100 100 100 100 100 90 54 25 19 19 18 18 17 15 15 14 12 10 9 8 8 7 6 5 4 4 4
46 57 82 95 98 98 100 98 88 100 100 100 100 100 95 97 100 100 99 100 100 96 100 100 100 100 100 100 94 73 47 25 20 24 28 29 28 29 29 22 18 14 11 10 9 8 7 6 5 4 4 4 3 2
44 38 36 37 49 87 100 99 100 100 100 100 100 100 100 100 100 100 90 89 70 83 81 87 93 50 28 25 35 39 42 45 46 47 47 47 44 39 30 21 14 12 10 8 7 6 6 4 4 4 3 2 2 2
49 47 44 42 40 38 36 35 38 44 51 58 59 60 77 89 67 42 37 35 31 28 28 42 50 54 59 59 58 57 53 50 45 43 42 42 39 32 24 15 11 10 8 8 7 6 4 4 4 3 2 2 2 3
55 50 44 41 39 37 36 35 35 34 32 30 29 27 25 26 31 40 52 62 66 66 63 58 56 58 58 58 56 56 60 62 59 51 41 39 41 34 19 12 11 10 9 8 7 5 4 4 3 2 2 2 3 3
32 32 32 33 36 40 43 45 45 48 51 57 62 64 66 65 63 61 60 58 55 52 50 53 55 54 55 59 61 61 65 72 75 69 55 36 35 33 20 13 12 10 8 7 6 5 4 4 2 2 3 3 3 3
61 64 66 69 72 74 76 75 72 70 68 64 62 61 62 63 60 57 56 57 58 58 60 62 63 62 60 61 64 65 68 69 72 75 71 55 34 34 25 14 12 10 9 7 6 4 4 3 2 2 3 3 4 4
82 79 75 73 72 72 72 70 68 68 69 67 65 64 63 64 65 65 65 67 69 68 65 63 64 68 69 67 68 71 72 73 73 71 66 57 38 29 30 17 12 10 9 8 6 4 4 3 2 2 3 3 4 4
80 80 80 78 78 80 80 77 74 71 67 64 63 62 62 62 62 64 69 71 70 74 75 77 75 73 71 71 71 71 71 74 75 72 67 60 44 32 29 22 13 11 9 8 7 5 4 3 2 3 3 4 4 4
84 81 80 79 78 76 76 74 72 71 70 70 72 73 67 64 63 60 62 71 77 76 74 82 82 76 72 71 72 75 72 69 70 73 68 60 46 37 30 26 14 11 9 8 7 6 4 4 3 3 3 4 4 4
80 81 81 81 81 80 79 81 83 84 84 86 84 83 89 87 81 77 71 74 80 74 74 82 85 84 84 82 82 83 76 72 71 72 68 61 48 36 28 28 21 12 10 9 8 7 5 5 3 3 3 4 5 5
74 74 74 74 74 73 71 73 78 77 75 77 78 77 82 86 83 83 80 77 77 78 80 85 87 87 84 85 84 83 80 74 78 74 71 61 50 38 26 24 25 14 11 10 8 8 6 5 4 3 3 4 4 5
68 68 70 70 73 71 67 63 61 61 63 66 72 74 75 79 78 81 85 84 87 89 87 88 91 93 84 84 84 77 78 78 80 77 73 66 55 42 29 22 26 23 13 11 10 8 8 5 5 4 3 4 4 5
59 57 56 62 66 70 74 73 72 72 71 68 72 79 84 86 84 84 82 86 90 91 94 97 97 93 86 86 87 81 78 77 76 78 75 71 59 47 31 25 27 28 17 12 11 10 9 8 5 5 3 3 4 4
70 66 66 67 66 67 70 77 84 84 81 75 74 71 75 80 85 88 84 88 90 93 97 100 98 91 88 88 88 82 79 74 72 78 82 76 68 50 38 31 28 32 28 15 13 12 10 9 8 5 5 4 3 4
75 74 74 72 66 67 67 70 75 73 72 77 78 79 82 83 81 82 89 96 88 90 93 98 93 96 92 94 90 85 79 70 68 74 77 74 74 53 44 33 28 30 33 20 14 13 12 11 10 8 6 6 4 4
64 65 65 64 66 74 78 84 84 80 79 79 79 79 83 88 85 87 91 92 87 91 94 93 91 96 94 92 85 86 87 70 64 70 72 71 73 54 40 32 27 25 32 30 16 14 13 12 11 10 8 6 6 4
70 71 69 66 69 78 86 96 93 87 86 86 85 84 84 86 92 91 92 91 91 92 90 89 86 93 97 91 87 86 84 70 63 66 70 70 67 53 35 32 29 24 28 34 23 16 14 14 13 12 11 9 7 6
68 68 67 68 74 84 93 96 92 92 92 91 91 92 90 91 91 92 90 87 88 92 93 86 90 92 93 91 84 86 82 68 58 61 66 67 59 49 34 33 32 26 28 38 33 20 17 14 14 14 13 12 10 7
Wind_Speed
77 85 93 100 108 118 122 126 120 125 117 112 101 83 80 80 80 78 74 75 72 71 67 63 65 67 66 72 75 76 78 76 80 87 87 88 88 87 91 96 101 103 108 110 115 120 124 130 132 140 144 150 153 157
77 85 91 98 104 114 124 119 120 120 116 107 96 89 85 83 80 73 76 73 74 70 65 64 68 68 69 71 76 75 77 82 83 83 86 87 88 92 97 102 104 112 113 115 121 131 134 134 144 151 157 155 159 163
76 83 93 97 104 119 122 129 127 113 107 104 92 85 90 83 77 68 68 72 75 77 70 73 77 74 74 76 78 82 80 81 83 84 88 93 95 96 104 107 110 112 118 122 132 136 139 144 150 155 157 164 168 166
72 83 91 96 106 118 125 124 120 105 105 101 94 90 85 80 81 78 77 73 71 78 77 78 79 77 80 80 81 81 83 87 88 92 94 94 99 103 107 112 115 118 122 135 135 141 144 153 155 158 165 168 179 160
73 79 85 100 109 113 124 126 123 119 113 106 102 90 84 83 80 80 77 75 76 78 78 82 82 84 80 78 84 86 87 87 89 92 97 100 107 110 113 118 124 129 137 136 142 146 153 162 161 165 171 180 139 129
73 80 88 101 111 123 117 121 124 119 115 99 97 91 95 90 88 90 87 81 81 87 84 90 89 87 81 83 87 91 91 92 97 104 104 109 114 119 120 133 140 140 138 141 151 152 160 162 171 171 167 142 132 114
74 83 96 105 114 130 118 112 118 113 101 92 98 94 95 91 84 84 84 82 84 86 88 88 92 95 94 92 94 97 97 102 105 107 114 119 121 123 129 136 139 141 146 153 156 160 162 171 171 158 134 119 105 94
74 86 102 119 129 130 104 89 106 101 94 96 96 100 96 89 89 92 89 84 87 90 89 92 94 95 94 95 98 102 103 107 111 113 117 124 132 139 140 138 143 149 155 155 160 165 168 173 145 125 110 101 93 90
75 89 110 122 120 122 113 102 104 102 104 102 101 102 100 97 91 89 90 90 90 90 92 94 96 99 99 103 108 107 110 112 114 121 127 136 142 140 141 145 149 151 155 161 158 170 148 132 119 110 103 96 90 86
80 95 110 123 122 123 120 111 107 99 93 95 94 97 95 93 91 96 96 98 100 96 95 99 100 102 102 104 109 113 115 119 128 135 134 139 140 141 145 151 156 158 164 166 161 138 130 113 103 98 94 89 83 80
86 97 106 109 110 113 110 106 95 92 90 92 92 89 90 94 96 92 96 97 96 98 100 103 107 107 110 111 114 119 126 133 134 130 135 140 144 150 156 158 162 167 156 133 129 114 105 100 96 91 86 82 80 78
88 94 99 105 111 115 112 101 97 98 98 97 88 87 95 98 99 101 103 102 104 104 101 106 107 111 116 121 126 131 130 128 130 133 137 143 146 151 156 161 148 132 126 112 105 101 95 90 85 82 79 77 75 72
88 91 99 107 107 107 107 106 111 112 109 102 97 101 100 93 96 96 97 98 103 110 114 115 114 113 116 116 123 122 124 131 135 138 143 150 151 145 119 125 112 104 101 98 95 91 86 84 83 81 78 74 71 69
77 88 94 101 108 110 108 114 112 101 102 101 97 92 99 99 98 92 96 104 106 108 107 107 111 112 116 118 119 120 127 134 140 139 146 127 122 115 102 97 93 92 92 89 86 85 84 81 79 76 72 70 68 65
64 74 83 92 98 105 105 106 107 105 101 102 100 104 107 101 101 104 106 107 106 107 111 117 120 117 118 124 127 129 131 130 127 112 103 94 88 86 85 83 84 85 85 84 82 79 76 75 72 70 68 65 63 61
51 59 67 78 90 91 96 103 105 100 100 100 105 110 103 101 104 107 105 108 111 112 112 119 119 117 117 116 111 102 96 90 84 79 78 78 79 79 80 79 79 78 78 77 75 72 68 66 65 63 62 60 58 56
26 32 42 54 66 78 87 90 91 96 102 105 105 104 105 104 105 108 103 105 107 105 102 98 89 84 75 60 55 57 61 64 67 69 71 70 68 68 69 71 71 71 70 68 67 64 62 60 58 57 56 55 53 52
23 23 24 25 26 30 36 46 55 61 67 72 75 75 82 87 78 69 66 60 55 50 42 34 33 34 35 36 36 39 42 47 50 50 50 52 54 58 62 64 64 64 64 64 63 61 59 58 57 54 52 50 49 48
27 27 27 27 27 27 28 29 29 30 30 31 31 31 30 26 21 16 12 10 10 11 11 13 15 17 20 24 28 32 36 39 41 43 44 46 49 52 56 58 59 61 61 61 59 57 56 54 52 50 49 48 46 44
32 32 32 33 32 32 31 30 29 27 24 21 19 17 16 14 12 9 6 3 1 4 8 12 16 21 26 31 35 39 43 45 48 49 50 50 50 51 54 56 57 59 60 58 56 55 53 51 48 46 45 45 45 43
45 44 42 40 39 37 35 32 29 26 24 23 20 18 16 13 9 7 7 10 12 14 19 24 28 34 39 44 47 50 52 53 55 56 56 56 55 53 53 56 57 59 59 57 56 53 51 48 46 44 43 42 42 41
42 39 36 34 32 31 29 26 24 24 20 17 14 12 9 8 8 9 13 17 20 23 27 32 38 43 48 53 55 58 60 62 62 61 60 59 59 56 55 56 57 60 59 59 56 52 50 47 45 44 43 42 41 41
33 31 31 30 27 26 24 22 20 16 13 11 8 5 5 7 8 11 14 19 23 28 34 39 44 48 53 57 60 64 65 66 68 67 66 64 62 60 58 57 57 58 58 57 55 53 50 48 45 44 44 43 41 40
27 26 24 22 21 19 17 15 13 10 7 6 7 9 11 13 16 20 24 26 30 34 39 44 48 53 57 60 64 68 71 71 70 71 69 66 64 63 60 57 57 57 58 57 55 53 51 50 47 46 45 44 43 41
22 20 18 17 15 14 12 10 9 6 5 7 10 13 17 20 23 26 30 34 37 41 44 48 52 57 61 64 69 72 74 75 73 73 72 68 66 64 61 59 58 57 58 57 55 52 50 48 46 45 44 43 43 42
17 17 16 14 11 8 6 4 1 3 7 10 12 15 19 23 27 31 34 38 41 44 48 53 57 61 65 69 73 76 77 76 75 75 73 70 68 66 63 59 57 57 59 59 56 53 51 48 47 44 42 41 40 40
13 12 10 8 7 4 1 3 6 9 12 14 18 22 24 27 32 36 39 43 47 50 54 58 63 66 69 72 76 78 78 77 77 76 75 71 69 68 65 62 58 58 58 59 58 56 54 51 48 46 44 43 41 40
9 7 5 2 2 4 7 10 14 17 19 21 23 26 30 33 36 39 43 48 52 55 58 62 66 69 71 75 77 79 80 79 78 77 75 72 70 68 66 64 61 58 57 58 57 57 56 53 50 47 45 43 41 39
9 7 6 7 9 12 14 17 20 23 26 28 29 31 33 36 39 43 48 51 56 59 62 66 69 71 73 76 80 81 81 80 79 77 75 73 71 70 67 65 62 58 57 57 57 57 56 55 53 51 49 47 46 45
17 16 17 17 19 20 21 23 26 29 32 34 37 38 40 43 46 49 51 54 58 63 66 69 72 73 75 79 82 83 83 81 78 76 74 71 70 69 67 65 62 58 55 55 55 55 55 55 54 51 49 47 44 43
20 21 21 21 22 25 26 29 33 35 37 39 42 45 47 50 53 54 56 59 62 65 69 72 74 75 76 81 83 84 84 81 78 75 72 70 68 67 65 63 61 58 55 54 53 54 53 53 52 51 49 47 45 44
27 28 29 28 28 30 33 36 38 39 42 45 48 51 54 55 56 60 61 65 67 70 73 76 78 78 81 83 84 84 83 80 78 73 70 67 66 66 64 62 60 59 55 53 53 52 53 52 52 51 50 49 47 45
35 36 35 35 36 38 40 43 45 46 48 50 53 56 58 60 62 65 67 69 72 75 77 80 81 82 83 85 84 84 83 79 76 71 68 65 64 63 61 60 59 58 55 53 52 51 52 51 51 51 50 49 48 46
Wind_Direction
187 188 189 190 193 192 192 195 193 199 203 208 212 207 213 219 221 225 226 232 236 235 237 244 249 250 253 251 251 257 261 263 266 275 271 277 282 284 286 286 290 295 301 302 302 305 306 306 306 310 310 310 314 314
187 187 188 190 191 188 189 190 190 198 203 206 208 211 214 217 222 226 225 229 232 239 238 246 245 246 250 254 259 262 264 269 274 274 276 282 283 285 288 291 293 299 300 302 304 304 307 305 306 308 309 312 315 316
187 187 187 189 188 186 187 185 193 201 204 206 207 208 214 220 219 219 227 232 235 242 244 244 244 245 248 253 257 263 268 273 274 275 277 280 285 287 291 295 296 298 300 301 304 304 307 305 305 308 310 312 312 314
186 187 189 188 182 184 183 187 190 195 201 202 204 208 211 216 223 226 231 229 233 238 243 246 248 251 255 258 262 264 264 268 271 276 278 284 287 290 291 294 297 301 300 302 303 304 305 307 308 308 310 313 314 314
183 186 187 180 179 179 178 186 192 197 200 204 205 207 215 220 223 223 225 229 234 240 243 246 248 253 256 259 262 264 267 270 274 277 282 283 287 291 292 294 295 298 299 299 302 302 304 306 307 308 310 311 313 312
181 185 180 176 176 175 178 189 194 197 201 206 208 211 215 218 224 226 227 230 235 242 247 249 249 252 255 259 262 264 267 271 276 280 281 286 287 290 291 294 296 298 299 298 302 304 304 306 306 310 310 310 309 310
181 181 175 175 175 177 183 192 195 200 201 203 207 213 218 216 217 224 227 231 237 239 242 248 253 256 255 257 262 266 270 272 276 278 283 288 289 290 293 295 295 296 297 300 301 302 304 307 307 308 307 307 309 310
178 176 175 173 174 179 178 185 194 198 196 203 206 210 214 217 221 227 232 234 238 242 245 249 253 255 257 262 266 269 271 273 279 281 285 287 289 290 292 292 294 294 296 299 301 302 305 305 307 306 307 309 309 309
174 175 176 178 181 180 185 192 194 200 205 210 213 216 219 223 225 229 235 238 238 242 246 251 253 257 261 265 268 271 273 275 278 282 285 286 288 290 292 291 292 295 299 302 303 303 305 303 304 305 307 307 307 306
171 173 178 182 185 186 190 195 198 201 205 209 213 217 217 220 224 230 234 238 240 243 248 252 255 258 261 264 267 272 274 278 280 282 284 286 288 290 292 293 296 297 300 300 302 302 301 302 304 306 305 304 304 305
173 175 179 184 185 189 189 193 191 195 203 206 209 213 221 227 229 230 235 238 243 250 252 252 255 259 263 267 272 275 277 278 281 282 283 286 288 291 293 296 297 298 300 300 300 301 303 305 305 304 304 305 306 307
176 178 182 185 185 186 189 191 197 201 206 206 212 217 220 222 225 231 237 240 244 246 250 255 259 263 265 266 270 273 277 280 282 286 288 289 292 293 293 295 297 298 299 300 301 303 305 304 304 305 306 306 306 305
181 183 184 183 183 187 190 194 202 205 209 215 215 220 219 227 234 235 239 242 247 250 250 254 260 267 269 270 273 278 278 279 283 288 288 291 293 296 295 294 297 298 300 302 303 304 306 307 308 308 308 307 305 304
185 188 189 189 191 196 199 200 205 207 211 217 221 225 228 233 237 241 245 247 251 254 256 259 266 267 271 275 279 279 280 284 288 289 290 293 291 293 294 297 300 300 300 302 306 308 308 308 308 307 307 307 306 305
191 193 194 198 199 202 205 206 208 210 217 221 225 226 233 236 239 242 244 250 254 257 259 264 266 268 273 278 280 283 284 287 288 287 288 290 292 294 296 298 300 301 303 305 307 308 308 308 308 307 307 307 306 305
192 199 202 203 204 205 208 212 213 212 218 225 228 233 238 239 242 246 252 255 257 261 264 266 269 273 278 282 281 282 281 282 285 288 291 292 294 295 297 298 301 303 305 307 308 309 309 308 308 309 308 307 307 307
173 189 201 209 213 214 216 216 220 224 226 228 234 240 240 242 248 252 256 266 268 271 272 274 274 274 275 278 284 285 288 289 290 290 291 292 294 295 298 302 305 305 307 310 312 313 314 313 313 312 311 310 310 309
139 145 153 164 177 190 202 213 221 227 231 236 239 242 246 249 253 254 259 262 260 259 263 266 275 281 285 288 290 294 294 292 292 296 299 300 301 304 305 307 308 312 316 318 319 319 319 318 317 316 314 313 312 312
146 152 158 164 170 178 183 189 194 200 205 208 210 212 214 216 221 232 240 241 241 246 255 276 291 303 313 316 315 319 327 330 330 327 324 321 317 314 313 316 318 322 323 324 323 323 323 321 319 317 316 316 317 316
130 131 131 132 131 130 129 130 131 130 128 125 126 134 145 157 163 157 144 136 235 305 324 339 344 345 346 349 350 350 350 348 345 341 339 335 330 326 325 326 326 327 329 329 329 328 326 324 321 321 322 321 319 319
114 112 112 112 113 115 118 122 125 130 135 138 141 140 137 126 108 87 53 32 16 11 8 6 3 2 2 0 359 358 355 353 351 348 346 344 340 336 332 333 333 334 334 333 333 333 331 327 326 327 326 324 322 320
115 118 120 122 125 126 127 129 131 133 132 127 125 121 100 75 51 35 25 16 9 5 4 5 4 3 1 0 359 357 357 355 353 350 348 347 344 343 340 339 337 338 339 338 337 337 335 333 332 332 332 329 327 325
121 121 124 125 126 129 129 133 135 135 131 124 114 88 51 32 22 15 5 359 357 357 358 359 359 359 358 357 357 356 355 354 354 352 350 348 347 347 345 343 341 341 342 342 341 340 339 338 337 337 336 334 332 330
128 127 128 127 127 128 128 127 128 125 110 83 52 31 20 15 10 6 3 360 357 356 356 356 356 355 355 354 355 354 354 353 353 352 350 348 348 349 348 345 344 345 346 346 346 344 344 343 341 341 340 337 335 333
129 128 129 129 131 132 130 125 116 98 51 18 9 5 0 359 360 358 357 358 358 355 354 353 352 353 352 352 353 353 353 352 351 350 349 348 348 349 350 348 347 347 348 349 350 349 347 346 344 343 343 340 337 335
137 137 140 143 144 143 141 134 75 349 349 346 344 345 347 347 347 349 350 352 354 353 351 350 349 349 350 350 351 352 351 350 349 348 348 347 348 348 350 351 350 350 350 350 351 352 351 350 348 347 346 345 342 339
145 142 139 142 144 140 102 356 347 346 342 339 337 336 336 337 338 340 342 346 348 349 348 348 346 347 347 348 349 350 348 349 347 347 347 347 347 347 349 351 352 352 351 350 351 353 354 353 353 352 350 350 348 344
166 159 148 132 5 345 335 332 332 336 337 339 337 333 332 331 333 334 336 340 343 343 344 344 344 344 344 345 346 347 346 347 346 345 346 346 346 345 348 350 352 352 352 351 352 353 354 355 355 354 353 352 352 351
236 247 266 288 301 307 310 315 320 323 325 328 328 330 329 328 330 331 333 336 338 339 340 340 340 340 341 342 344 344 344 343 344 344 344 343 345 344 347 348 350 351 351 352 352 353 354 356 355 355 355 355 355 355
253 262 269 279 288 296 305 312 317 320 323 322 324 325 325 326 327 329 331 332 333 334 335 335 336 337 339 341 341 341 341 341 342 342 342 342 342 343 343 345 347 350 351 352 353 354 355 355 356 356 357 356 355 355
262 268 272 278 287 295 303 310 313 316 318 319 321 322 322 323 325 327 327 327 328 330 330 331 332 334 335 337 338 339 339 339 339 340 340 340 340 341 341 342 344 347 350 351 352 354 355 354 355 357 357 357 357 357
270 274 279 284 289 294 299 304 307 310 313 314 316 318 320 320 320 321 322 322 324 326 327 327 329 332 332 334 336 336 336 338 336 337 337 337 337 339 339 340 342 344 348 350 352 353 354 355 354 356 357 358 358 359
276 279 282 285 288 291 294 297 301 305 307 309 312 314 316 315 316 316 317 319 321 322 323 325 327 328 329 331 333 333 333 334 334 334 334 335 335 337 337 338 340 342 344 347 350 352 353 354 355 355 357 357 359 359